Regional Weather Roundup
Issued by NWS

Home | Current Version | Previous Version | Text Only | Print | Product List | Glossary Off
Versions: 1 2 3 4 5 6 7 8 9 10 11 12 13 14 15 16 17 18 19 20 21 22 23 24 25 26 27 28 29 30 31 32 33 34 35 36 37 38 39 40 41 42 43 44 45 46 47 48 49 50

000
ASUS43 KFSD 192102
RWRSD

WEATHER ROUNDUP FOR SOUTH DAKOTA
NATIONAL WEATHER SERVICE SIOUX FALLS SD
300 PM CST FRI JAN 19 2018

NOTE: "FAIR" INDICATES FEW OR NO CLOUDS BELOW 12,000 FEET WITH NO
SIGNIFICANT WEATHER AND/OR OBSTRUCTIONS TO VISIBILITY.


SDZ001>005-009-010-012>017-192200-
NORTHWEST AND NORTH CENTRAL SOUTH DAKOTA

CITY           SKY/WX    TMP DP  RH WIND       PRES   REMARKS
BUFFALO          N/A     37  32  82 W14       29.62S
FAITH            N/A     41  33  73 NW13      29.65F
MOBRIDGE       PTSUNNY   46  34  62 W13       29.59F
$$

SDZ012>016-024>037-041>051-057-063-072>074-192200-
SOUTHWEST AND SOUTH CENTRAL SOUTH DAKOTA

CITY           SKY/WX    TMP DP  RH WIND       PRES   REMARKS
RAPID CTY ARPT PTSUNNY   46  32  58 N9        29.68S
PIERRE         CLOUDY    49  32  52 NW12      29.63R
CUSTER         PTSUNNY   45  23  42 W10G20    29.66S
ELLSWORTH AFB  PTSUNNY   43  31  63 N6        29.67S
PHILIP         CLOUDY    46  34  62 W9        29.68R
SPEARFISH        N/A     43  30  61 NW6       29.68F
WINNER         FAIR      47  34  60 NW14      29.64S
$$

SDZ004>011-016>023-039-040-192200-
NORTHEAST SOUTH DAKOTA

CITY           SKY/WX    TMP DP  RH WIND       PRES   REMARKS
ABERDEEN       PTSUNNY   52  31  44 NW10      29.58R
WATERTOWN      MOSUNNY   46  30  53 N12       29.54R
BROOKINGS      CLOUDY    41  33  73 W9        29.54R
SISSETON         N/A     51  27  39 NW13      29.51R
$$

SDZ017-020-022-023-036>040-048>070-192200-
SOUTHEAST SOUTH DAKOTA

CITY           SKY/WX    TMP DP  RH WIND       PRES   REMARKS
SIOUX FALLS    CLOUDY    47  36  65 W13       29.55R
HURON          PTSUNNY   47  32  56 N8        29.59R
CHAMBERLAIN    CLOUDY    45  35  67 W8        29.63R
MITCHELL       CLOUDY    46  36  68 NW8       29.60R
YANKTON        CLOUDY    56  34  43 W13       29.57R
$$

ABBREVIATIONS USED IN REMARKS
   TC - TEMPERATURE IN CELSIUS
  WCI - WIND CHILL INDEX
   HX - HEAT INDEX
  VSB - VISIBILITY





USA.gov is the U.S. government's official web portal to all federal, state and local government web resources and services.